FW5359 Weather Reports


time (UTC)temp
F
wind
direction
speed
knots
gust
knots
rain 1hr
in
rain 24hr
in
rain mn
in
humidity
%
barometer
mb
20260903065438 81 171 1.7 7.8 0.00 0.00 0.00 77 1015.5
20260903064932 81 171 2.6 7.8 0.00 0.00 0.00 77 1015.5
20260903064426 82 156 1.7 7.0 0.00 0.00 0.00 78 1015.5
20260903063919 82 165 0.9 5.2 0.00 0.00 0.00 78 1015.4
20260903063414 82 165 0.9 3.5 0.00 0.00 0.00 77 1015.5
20260903062913 82 165 1.7 5.2 0.00 0.00 0.00 77 1015.5
20260903062402 82 165 1.7 9.6 0.00 0.00 0.00 76 1015.5
20260903061856 82 178 1.7 9.6 0.00 0.00 0.00 76 1015.5
20260903061350 83 171 1.7 8.7 0.00 0.00 0.00 76 1015.4
20260903060843 83 178 2.6 7.8 0.00 0.00 0.00 76 1015.4
20260903060338 83 185 2.6 7.8 0.00 0.00 0.00 75 1015.4
20260903055326 83 159 1.7 6.1 0.00 0.00 0.00 74 1015.3
20260903054819 83 158 1.7 6.1 0.00 0.00 0.00 74 1015.3
20260903054313 83 163 1.7 6.1 0.00 0.00 0.00 73 1015.3
20260903053807 83 156 1.7 5.2 0.00 0.00 0.00 73 1015.3
20260903053302 84 155 1.7 5.2 0.00 0.00 0.00 73 1015.3
20260903052756 84 157 1.7 5.2 0.00 0.00 0.00 72 1015.4
20260903052250 84 161 1.7 5.2 0.00 0.00 0.00 71 1015.3
20260903052014 84 162 1.7 5.2 0.00 0.00 0.00 70 1015.3
20260903051239 85 159 1.7 5.2 0.00 0.00 0.00 69 1015.3
20260903050732 85 159 0.9 5.2 0.00 0.00 0.00 68 1015.2
20260903050229 85 159 0.9 6.1 0.00 0.00 0.00 67 1015.2
20260903045729 85 160 1.7 6.1 0.00 0.00 0.00 66 1015.0
20260903045227 86 149 1.7 6.1 0.00 0.00 0.00 65 1015.2
20260903044725 86 181 2.6 9.6 0.00 0.00 0.00 64 1015.2
20260903044224 86 175 2.6 9.6 0.00 0.00 0.00 64 1015.2
20260903043724 86 178 2.6 7.8 0.00 0.00 0.00 63 1015.0
20260903043223 87 207 2.6 9.6 0.00 0.00 0.00 63 1014.9
20260903042723 87 150 3.5 9.6 0.00 0.00 0.00 62 1015.0
20260903042220 87 184 2.6 9.6 0.00 0.00 0.00 62 1015.0
20260903041723 87 189 2.6 7.8 0.00 0.00 0.00 62 1014.8
20260903041456 87 227 1.7 7.0 0.00 0.00 0.00 62 1014.8
20260903040716 87 184 2.6 7.8 0.00 0.00 0.00 63 1014.8
20260903040218 88 122 3.5 9.6 0.00 0.00 0.00 65 1014.7
20260903035716 88 175 2.6 9.6 0.00 0.00 0.00 64 1014.7
20260903035216 88 166 1.7 8.7 0.00 0.00 0.00 64 1014.6
20260903034717 88 167 2.6 8.7 0.00 0.00 0.00 64 1014.5
20260903033715 88 188 1.7 7.0 0.00 0.00 0.00 63 1014.3
20260903033210 87 167 2.6 7.8 0.00 0.00 0.00 63 1014.3
20260903032704 87 165 1.7 7.8 0.00 0.00 0.00 61 1014.3
20260903032158 87 169 1.7 7.8 0.00 0.00 0.00 58 1014.2
20260903031652 87 147 1.7 8.7 0.00 0.00 0.00 57 1014.0
20260903031147 86 138 0.9 8.7 0.00 0.00 0.00 57 1014.0
20260903030640 86 156 0.0 0.0 0.00 0.00 0.00 57 1013.7
20260903030405 86 156 0.0 0.0 0.00 0.00 0.00 56 1013.6
20260903025628 86 156 0.0 0.9 0.00 0.00 0.00 56 1013.6
20260903025122 86 156 0.0 0.9 0.00 0.00 0.00 56 1013.5
20260903024616 86 156 0.0 0.0 0.00 0.00 0.00 56 1013.4
20260903024110 87 156 0.0 0.0 0.00 0.00 0.00 56 1013.3
20260903023604 87 156 0.0 0.0 0.00 0.00 0.00 55 1013.3
20260903023058 87 156 0.0 0.0 0.00 0.00 0.00 54 1013.2
20260903022824 87 156 0.0 0.9 0.00 0.00 0.00 55 1013.2
20260903022316 88 156 0.0 0.9 0.00 0.00 0.00 54 1013.2
20260903021540 88 156 0.0 0.0 0.00 0.00 0.00 53 1013.2
20260903020534 89 156 0.0 1.7 0.00 0.00 0.00 51 1013.0
20260903020034 89 156 0.0 1.7 0.00 0.00 0.00 51 1013.0
20260903015534 90 156 0.0 0.0 0.00 0.00 0.00 51 1013.0
20260903015035 90 156 0.0 0.0 0.00 0.00 0.00 50 1012.8
20260903014802 91 156 0.0 0.0 0.00 0.00 0.00 50 1012.8
20260903014032 91 155 0.0 0.0 0.00 0.00 0.00 48 1012.8
20260903013532 91 155 0.0 0.0 0.00 0.00 0.00 47 1012.7
20260903013032 92 155 0.0 0.9 0.00 0.00 0.00 47 1012.7
20260903012530 92 155 0.0 0.9 0.00 0.00 0.00 47 1012.7
20260903012028 92 155 0.0 0.0 0.00 0.00 0.00 46 1012.6
20260903011526 93 155 0.0 0.9 0.00 0.00 0.00 46 1012.6
20260903011024 93 155 0.0 0.9 0.00 0.00 0.00 46 1012.7
20260903010522 93 155 0.0 0.0 0.00 0.00 0.00 46 1012.6
20260903010020 94 155 0.0 0.9 0.00 0.00 0.00 45 1012.6
20260903005749 94 155 0.0 0.9 0.00 0.00 0.00 44 1012.6
20260903005016 94 155 0.0 1.7 0.00 0.00 0.00 44 1012.7
20260903004514 94 155 0.0 1.7 0.00 0.00 0.00 44 1012.7
20260903004014 94 155 0.0 2.6 0.00 0.00 0.00 44 1012.7
20260903003516 95 155 0.0 2.6 0.00 0.00 0.00 43 1012.7
20260903003016 95 155 0.0 1.7 0.00 0.00 0.00 43 1012.7
20260903002508 95 155 0.9 2.6 0.00 0.00 0.00 43 1012.7
20260903002002 96 155 0.9 4.3 0.00 0.00 0.00 42 1012.6
20260903001456 96 155 0.9 4.3 0.00 0.00 0.00 41 1012.7
20260903000952 96 155 0.9 4.3 0.00 0.00 0.00 40 1012.8
20260903000454 97 155 0.9 4.3 0.00 0.00 0.00 39 1012.7
20260902235953 97 155 0.9 4.3 0.00 0.00 0.00 39 1012.8
20260902235452 97 155 1.7 4.3 0.00 0.00 0.00 39 1012.8
20260902235223 98 155 0.9 4.3 0.00 0.00 0.00 38 1012.9
20260902234450 98 155 0.9 4.3 0.00 0.00 0.00 38 1012.9
20260902233950 98 155 0.9 4.3 0.00 0.00 0.00 38 1012.9
20260902233450 98 154 0.9 4.3 0.00 0.00 0.00 38 1012.9
20260902232950 98 211 0.9 3.5 0.00 0.00 0.00 37 1013.0
20260902232450 98 123 0.9 2.6 0.00 0.00 0.00 38 1013.0
20260902231946 98 123 1.7 3.5 0.00 0.00 0.00 38 1012.9
20260902231446 98 121 1.7 6.1 0.00 0.00 0.00 38 1012.9
20260902231217 99 126 1.7 6.1 0.00 0.00 0.00 37 1012.9
20260902230446 99 246 1.7 6.1 0.00 0.00 0.00 38 1012.9
20260902225946 99 125 0.9 3.5 0.00 0.00 0.00 38 1012.9
20260902225449 99 117 0.9 3.5 0.00 0.00 0.00 37 1013.0
20260902225219 99 114 0.9 4.3 0.00 0.00 0.00 38 1013.0
20260902224449 99 145 1.7 4.3 0.00 0.00 0.00 38 1013.0
20260902223948 99 118 0.9 4.3 0.00 0.00 0.00 38 1013.0
20260902223444 99 136 0.9 7.0 0.00 0.00 0.00 38 1012.9
20260902222942 99 179 1.7 7.0 0.00 0.00 0.00 38 1013.0
20260902221942 100 115 1.7 5.2 0.00 0.00 0.00 39 1013.0
20260902221442 100 257 1.7 5.2 0.00 0.00 0.00 37 1013.1
20260902220944 100 166 1.7 5.2 0.00 0.00 0.00 38 1013.2
20260902220437 100 177 0.9 5.2 0.00 0.00 0.00 39 1013.2
20260902215936 100 187 0.9 2.6 0.00 0.00 0.00 39 1013.2
20260902215436 100 188 1.7 6.1 0.00 0.00 0.00 39 1013.3
20260902215206 100 184 1.7 6.1 0.00 0.00 0.00 39 1013.2
20260902214438 99 138 1.7 4.3 0.00 0.00 0.00 39 1013.3
20260902213935 100 198 1.7 6.1 0.00 0.00 0.00 39 1013.3
20260902213434 100 171 1.7 6.1 0.00 0.00 0.00 39 1013.3
20260902212932 99 262 1.7 5.2 0.00 0.00 0.00 40 1013.3
20260902212431 100 171 2.6 5.2 0.00 0.00 0.00 38 1013.4
20260902211932 100 162 1.7 5.2 0.00 0.00 0.00 39 1013.4
20260902211432 100 142 1.7 5.2 0.00 0.00 0.00 41 1013.4
20260902210931 100 175 1.7 5.2 0.00 0.00 0.00 40 1013.5
20260902210425 99 275 0.9 4.3 0.00 0.00 0.00 41 1013.6
20260902205919 99 152 0.9 7.8 0.00 0.00 0.00 42 1013.6
20260902205413 98 155 1.7 7.8 0.00 0.00 0.00 42 1013.7
20260902205138 99 70 1.7 7.0 0.00 0.00 0.00 41 1013.8
20260902204632 99 150 1.7 7.0 0.00 0.00 0.00 41 1013.9
20260902203854 99 204 1.7 7.0 0.00 0.00 0.00 43 1013.9
20260902203348 99 156 2.6 7.8 0.00 0.00 0.00 42 1014.0
20260902202843 99 227 2.6 7.8 0.00 0.00 0.00 42 1014.0
20260902202337 99 169 1.7 7.8 0.00 0.00 0.00 42 1014.2
20260902201831 98 138 1.7 9.6 0.00 0.00 0.00 45 1014.2
20260902201325 98 102 2.6 9.6 0.00 0.00 0.00 45 1014.3
20260902200819 98 90 1.7 6.1 0.00 0.00 0.00 45 1014.5
20260902200314 97 119 1.7 6.1 0.00 0.00 0.00 45 1014.5
20260902195807 97 155 1.7 6.1 0.00 0.00 0.00 44 1014.7
20260902195301 97 167 1.7 6.1 0.00 0.00 0.00 45 1014.8
20260902195026 97 348 1.7 5.2 0.00 0.00 0.00 44 1014.8
20260902194249 97 121 1.7 5.2 0.00 0.00 0.00 43 1014.9
20260902193743 98 123 2.6 6.1 0.00 0.00 0.00 44 1015.0
20260902193237 98 113 2.6 6.1 0.00 0.00 0.00 44 1015.0
20260902192731 98 136 1.7 6.1 0.00 0.00 0.00 45 1015.2
20260902192225 98 163 1.7 7.0 0.00 0.00 0.00 43 1015.2
20260902191719 98 159 2.6 7.0 0.00 0.00 0.00 42 1015.3
20260902191213 98 251 1.7 7.0 0.00 0.00 0.00 42 1015.4
20260902190939 98 175 0.9 4.3 0.00 0.00 0.00 43 1015.5
20260902190201 97 217 1.7 4.3 0.00 0.00 0.00 44 1015.6
20260902185655 97 213 1.7 7.0 0.00 0.00 0.00 45 1015.7
20260902185149 97 211 1.7 7.0 0.00 0.00 0.00 46 1015.7
20260902184643 96 107 1.7 6.1 0.00 0.00 0.00 47 1015.8
20260902184137 96 152 1.7 6.1 0.00 0.00 0.00 48 1015.9
20260902183631 96 209 1.7 6.1 0.00 0.00 0.00 48 1016.0
20260902183125 96 163 2.6 6.1 0.00 0.00 0.00 49 1016.1
20260902182113 96 150 1.7 6.1 0.00 0.00 0.00 50 1016.3
20260902181606 95 163 1.7 6.1 0.00 0.00 0.00 51 1016.3
20260902181101 95 217 0.9 5.2 0.00 0.00 0.00 53 1016.4
20260902180827 95 225 1.7 5.2 0.00 0.00 0.00 53 1016.5
20260902180048 94 149 2.6 8.7 0.00 0.00 0.00 54 1016.6
20260902175543 94 164 2.6 8.7 0.00 0.00 0.00 55 1016.7
20260902175036 94 164 1.7 6.1 0.00 0.00 0.00 55 1016.8
20260902174803 94 184 1.7 7.0 0.00 0.00 0.00 55 1016.9
20260902174024 93 192 2.6 9.6 0.00 0.00 0.00 55 1017.0
20260902173519 93 148 2.6 9.6 0.00 0.00 0.00 56 1017.0
20260902173013 93 221 2.6 6.1 0.00 0.00 0.00 57 1017.0
20260902172507 93 176 2.6 6.1 0.00 0.00 0.00 57 1017.2
20260902172001 94 150 1.7 6.1 0.00 0.00 0.00 56 1017.1
20260902171455 93 231 0.9 4.3 0.00 0.00 0.00 59 1017.2
20260902170949 93 234 0.9 4.3 0.00 0.00 0.00 58 1017.3
20260902170443 93 237 1.7 6.1 0.00 0.00 0.00 57 1017.3
20260902165936 92 236 1.7 6.1 0.00 0.00 0.00 58 1017.4
20260902165431 92 242 1.7 5.2 0.00 0.00 0.00 58 1017.4
20260902164925 92 228 1.7 5.2 0.00 0.00 0.00 60 1017.4
20260902164419 92 196 0.9 4.3 0.00 0.00 0.00 60 1017.5
20260902164144 91 242 1.7 7.0 0.00 0.00 0.00 61 1017.5
20260902163412 91 146 1.7 7.0 0.00 0.00 0.00 62 1017.6
20260902162913 91 261 1.7 4.3 0.00 0.00 0.00 62 1017.5
20260902162412 90 229 1.7 6.1 0.00 0.00 0.00 63 1017.5
20260902161913 90 263 1.7 6.1 0.00 0.00 0.00 63 1017.6
20260902161413 90 230 0.9 5.2 0.00 0.00 0.00 64 1017.5
20260902160913 90 267 0.9 5.2 0.00 0.00 0.00 67 1017.5
20260902160413 89 185 0.9 3.5 0.00 0.00 0.00 68 1017.6
20260902155913 88 184 1.7 4.3 0.00 0.00 0.00 69 1017.7
20260902155413 88 221 0.9 4.3 0.00 0.00 0.00 68 1017.7
20260902154913 88 296 1.7 3.5 0.00 0.00 0.00 68 1017.6
20260902153913 87 213 0.9 3.5 0.00 0.00 0.00 70 1017.7
20260902153413 87 213 1.7 3.5 0.00 0.00 0.00 71 1017.7
20260902152913 87 213 0.9 3.5 0.00 0.00 0.00 73 1017.7
20260902152412 86 213 0.9 3.5 0.00 0.00 0.00 72 1017.7
20260902151915 85 304 0.9 5.2 0.00 0.00 0.00 74 1017.7
20260902151411 85 278 1.7 5.2 0.00 0.00 0.00 75 1017.7
20260902150913 85 238 1.7 5.2 0.00 0.00 0.00 75 1017.7
20260902150406 84 205 1.7 5.2 0.00 0.00 0.00 75 1017.7
20260902145355 84 240 1.7 7.0 0.00 0.00 0.00 76 1017.8
20260902144850 84 243 1.7 4.3 0.00 0.00 0.00 76 1017.8
20260902144342 83 250 1.7 3.5 0.00 0.00 0.00 78 1017.8
20260902143837 83 247 1.7 3.5 0.00 0.00 0.00 78 1017.9
20260902143331 83 238 1.7 3.5 0.00 0.00 0.00 79 1017.8
20260902143055 83 241 1.7 3.5 0.00 0.00 0.00 79 1017.7
20260902142550 83 251 0.9 3.5 0.00 0.00 0.00 80 1017.7
20260902142044 82 182 0.9 2.6 0.00 0.00 0.00 80 1017.7
20260902141307 82 176 0.9 2.6 0.00 0.00 0.00 81 1017.7
20260902140800 82 176 0.9 2.6 0.00 0.00 0.00 82 1017.6
20260902140254 82 176 0.0 2.6 0.00 0.00 0.00 82 1017.7
20260902135748 81 176 0.0 0.0 0.00 0.00 0.00 83 1017.7
20260902135243 80 176 0.0 0.0 0.00 0.00 0.00 84 1017.6
20260902134736 80 176 0.0 0.0 0.00 0.00 0.00 84 1017.5
20260902134231 79 176 0.0 0.0 0.00 0.00 0.00 85 1017.5
20260902133725 79 176 0.0 0.0 0.00 0.00 0.00 85 1017.5
20260902133219 79 176 0.0 0.0 0.00 0.00 0.00 85 1017.5
20260902132712 78 176 0.0 0.0 0.00 0.00 0.00 85 1017.5
20260902132207 78 176 0.0 0.0 0.00 0.00 0.00 85 1017.5
20260902131701 77 176 0.0 0.0 0.00 0.00 0.00 85 1017.4
20260902130649 76 176 0.0 0.0 0.00 0.00 0.00 86 1017.4
20260902130143 76 176 0.0 0.0 0.00 0.00 0.00 87 1017.3
20260902125637 75 176 0.0 0.0 0.00 0.00 0.00 87 1017.3
20260902125401 75 176 0.0 0.0 0.00 0.00 0.00 86 1017.2
20260902124625 75 176 0.0 0.0 0.00 0.00 0.00 85 1017.2
20260902124119 75 176 0.0 0.0 0.00 0.00 0.00 85 1017.2
20260902123612 75 176 0.0 0.0 0.00 0.00 0.00 85 1017.1
20260902123106 76 176 0.0 0.0 0.00 0.00 0.00 86 1017.0
20260902122600 76 176 0.0 0.0 0.00 0.00 0.00 86 1016.9
20260902122054 75 176 0.0 0.0 0.00 0.00 0.00 85 1016.8
20260902121549 75 176 0.0 0.0 0.00 0.00 0.00 84 1016.9
20260902121043 75 176 0.0 0.0 0.00 0.00 0.00 84 1016.9
20260902120537 76 176 0.0 0.0 0.00 0.00 0.00 85 1016.8
20260902120030 76 176 0.0 0.0 0.00 0.00 0.00 86 1016.9
20260902115524 76 176 0.0 0.0 0.00 0.00 0.00 86 1016.9
20260902115250 76 176 0.0 0.0 0.00 0.00 0.00 85 1016.9
20260902114743 76 176 0.0 0.0 0.00 0.00 0.00 86 1016.8
20260902114007 76 176 0.0 0.0 0.00 0.00 0.00 86 1016.8
20260902113500 76 176 0.0 0.0 0.00 0.00 0.00 85 1016.8
20260902112954 76 176 0.0 0.0 0.00 0.00 0.00 85 1016.8
20260902112449 76 176 0.0 0.0 0.00 0.00 0.00 85 1016.8
20260902111943 76 176 0.0 0.0 0.00 0.00 0.00 85 1016.8
20260902111437 76 176 0.0 0.0 0.00 0.00 0.00 84 1016.8
20260902110931 76 176 0.0 0.0 0.00 0.00 0.00 84 1016.9
20260902110424 76 176 0.0 0.0 0.00 0.00 0.00 84 1016.7
20260902105918 76 176 0.0 0.0 0.00 0.00 0.00 84 1016.7
20260902105412 76 176 0.0 0.0 0.00 0.00 0.00 83 1016.6
20260902104906 76 176 0.0 0.0 0.00 0.00 0.00 83 1016.6
20260902104401 76 176 0.0 0.0 0.00 0.00 0.00 83 1016.7
20260902103620 76 176 0.0 0.0 0.00 0.00 0.00 83 1016.7
20260902102842 76 176 0.0 0.0 0.00 0.00 0.00 83 1016.7
20260902102337 76 176 0.0 0.0 0.00 0.00 0.00 82 1016.7
20260902101831 76 176 0.0 0.0 0.00 0.00 0.00 82 1016.7
20260902101325 76 176 0.0 0.0 0.00 0.00 0.00 82 1016.6
20260902101049 76 176 0.0 0.0 0.00 0.00 0.00 81 1016.6
20260902100313 76 176 0.0 0.0 0.00 0.00 0.00 81 1016.7
20260902095805 76 176 0.0 0.0 0.00 0.00 0.00 81 1016.7
20260902095307 76 176 0.0 0.0 0.00 0.00 0.00 80 1016.8
20260902095034 76 176 0.0 0.0 0.00 0.00 0.00 79 1016.8
20260902094304 77 176 0.0 0.0 0.00 0.00 0.00 78 1016.8
20260902094035 77 176 0.0 0.0 0.00 0.00 0.00 79 1016.8
20260902093303 77 176 0.0 0.0 0.00 0.00 0.00 79 1016.7
20260902092802 77 176 0.0 0.0 0.00 0.00 0.00 79 1016.7
20260902092305 77 176 0.0 0.0 0.00 0.00 0.00 79 1016.7
20260902091802 78 176 0.0 0.0 0.00 0.00 0.00 79 1016.8
20260902091302 78 176 0.0 0.0 0.00 0.00 0.00 79 1016.9
20260902090758 78 176 0.0 0.0 0.00 0.00 0.00 78 1016.9
20260902090529 78 176 0.0 0.0 0.00 0.00 0.00 78 1016.9
20260902085757 78 176 0.0 0.0 0.00 0.00 0.00 77 1017.0
20260902085257 78 176 0.0 0.0 0.00 0.00 0.00 77 1017.0
20260902085028 78 176 0.0 0.0 0.00 0.00 0.00 77 1017.0
20260902084528 78 176 0.0 0.0 0.00 0.00 0.00 77 1016.9
20260902083758 78 176 0.0 0.0 0.00 0.00 0.00 76 1016.8
20260902083258 79 176 0.0 0.0 0.00 0.00 0.00 76 1016.9
20260902082758 79 176 0.0 0.0 0.00 0.00 0.00 75 1016.9
20260902082253 79 176 0.0 0.0 0.00 0.00 0.00 75 1016.9
20260902081751 79 176 0.0 0.0 0.00 0.00 0.00 75 1016.9
20260902081250 79 176 0.0 0.0 0.00 0.00 0.00 75 1017.0
20260902080748 79 176 0.0 0.0 0.00 0.00 0.00 75 1016.9
20260902080516 80 176 0.0 0.0 0.00 0.00 0.00 74 1017.0
20260902075746 80 176 0.0 0.0 0.00 0.00 0.00 74 1017.1
20260902075244 80 176 0.0 0.0 0.00 0.00 0.00 73 1017.1
20260902074742 80 176 0.0 0.0 0.00 0.00 0.00 73 1017.1
20260902074240 80 176 0.0 0.0 0.00 0.00 0.00 73 1017.1
20260902073737 80 176 0.0 3.5 0.00 0.00 0.00 72 1017.0
20260902073235 80 176 0.0 3.5 0.00 0.00 0.00 72 1017.1
20260902072734 81 177 0.0 1.7 0.00 0.00 0.00 71 1017.0
20260902072234 81 177 0.0 1.7 0.00 0.00 0.00 71 1017.0
20260902071731 81 177 0.9 3.5 0.00 0.00 0.00 70 1017.1
20260902071232 81 177 0.9 3.5 0.00 0.00 0.00 70 1017.0
20260902071001 81 177 0.9 4.3 0.00 0.00 0.00 70 1017.1
20260902070229 81 178 0.9 5.2 0.00 0.00 0.00 70 1017.0
20260902065729 81 196 0.9 5.2 0.00 0.00 0.00 69 1017.1